| time (UTC) | temp C | wind direction | speed KPH | gust KPH | rain 1hr cm | rain 24hr cm | rain mn cm | humidity % | barometer mb |
| 20260510104009 | 3 | 85 | 0.0 | 0.0 | 0.00 | 0.00 | 0.00 | 99 | 1017.3 |
| 20260510103506 | 3 | 91 | 0.0 | 0.0 | 0.00 | 0.00 | 0.00 | 99 | 1017.3 |
| 20260510103001 | 2 | 40 | 0.0 | 0.0 | 0.00 | 0.00 | 0.00 | 99 | 1017.0 |
| 20260510102458 | 3 | 144 | 0.0 | 0.0 | 0.00 | 0.00 | 0.00 | 99 | 1016.7 |
| 20260510101954 | 3 | 302 | 0.0 | 0.0 | 0.00 | 0.00 | 0.00 | 99 | 1016.7 |
| 20260510101452 | 3 | 299 | 0.0 | 0.0 | 0.00 | 0.00 | 0.00 | 99 | 1017.0 |
| 20260510100950 | 3 | 302 | 0.0 | 0.0 | 0.00 | 0.00 | 0.00 | 99 | 1016.6 |
| 20260510100446 | 2 | 304 | 0.0 | 0.0 | 0.00 | 0.00 | 0.00 | 99 | 1016.5 |
| 20260510095942 | 3 | 286 | 0.0 | 0.0 | 0.00 | 0.00 | 0.00 | 99 | 1016.5 |
| 20260510095438 | 3 | 123 | 0.0 | 0.0 | 0.00 | 0.00 | 0.00 | 99 | 1016.5 |
| 20260510094937 | 3 | 258 | 0.0 | 1.6 | 0.00 | 0.00 | 0.00 | 99 | 1016.5 |
| 20260510094432 | 2 | 116 | 0.0 | 0.0 | 0.00 | 0.00 | 0.00 | 99 | 1016.4 |
| 20260510093928 | 3 | 94 | 1.6 | 3.2 | 0.00 | 0.00 | 0.00 | 99 | 1016.4 |
| 20260510093424 | 3 | 118 | 0.0 | 1.6 | 0.00 | 0.00 | 0.00 | 99 | 1016.2 |
| 20260510092921 | 2 | 96 | 1.6 | 1.6 | 0.00 | 0.00 | 0.00 | 99 | 1016.5 |
| 20260510092419 | 3 | 62 | 0.0 | 1.6 | 0.00 | 0.00 | 0.00 | 99 | 1016.2 |
| 20260510091918 | 3 | 163 | 0.0 | 1.6 | 0.00 | 0.00 | 0.00 | 99 | 1016.1 |
| 20260510091415 | 2 | 306 | 1.6 | 3.2 | 0.00 | 0.00 | 0.00 | 99 | 1016.3 |
| 20260510090912 | 3 | 195 | 0.0 | 0.0 | 0.00 | 0.00 | 0.00 | 99 | 1016.1 |
| 20260510090409 | 3 | 309 | 0.0 | 1.6 | 0.00 | 0.00 | 0.00 | 99 | 1016.3 |
| 20260510085905 | 3 | 100 | 0.0 | 0.0 | 0.00 | 0.00 | 0.00 | 99 | 1016.0 |
| 20260510085359 | 3 | 290 | 0.0 | 1.6 | 0.00 | 0.00 | 0.00 | 99 | 1016.1 |
| 20260510084855 | 3 | 113 | 0.0 | 0.0 | 0.00 | 0.00 | 0.00 | 99 | 1015.8 |
| 20260510084353 | 3 | 112 | 0.0 | 0.0 | 0.00 | 0.00 | 0.00 | 99 | 1015.9 |
| 20260510083849 | 3 | 113 | 0.0 | 0.0 | 0.00 | 0.00 | 0.00 | 99 | 1015.9 |
| 20260510083346 | 3 | 75 | 0.0 | 1.6 | 0.00 | 0.00 | 0.00 | 99 | 1015.9 |
| 20260510082841 | 3 | 153 | 0.0 | 0.0 | 0.00 | 0.00 | 0.00 | 99 | 1015.9 |
| 20260510082339 | 3 | 162 | 0.0 | 0.0 | 0.00 | 0.00 | 0.00 | 99 | 1015.9 |
| 20260510081837 | 3 | 200 | 0.0 | 0.0 | 0.00 | 0.00 | 0.00 | 99 | 1016.0 |
| 20260510081334 | 3 | 279 | 1.6 | 1.6 | 0.00 | 0.00 | 0.00 | 99 | 1016.2 |
| 20260510080830 | 3 | 156 | 0.0 | 0.0 | 0.00 | 0.00 | 0.00 | 99 | 1015.9 |
| 20260510080325 | 3 | 230 | 0.0 | 1.6 | 0.00 | 0.00 | 0.00 | 99 | 1015.7 |
| 20260510075822 | 3 | 193 | 0.0 | 1.6 | 0.00 | 0.00 | 0.00 | 99 | 1015.7 |
| 20260510075319 | 3 | 296 | 0.0 | 1.6 | 0.00 | 0.00 | 0.00 | 99 | 1015.9 |
| 20260510074816 | 3 | 112 | 0.0 | 0.0 | 0.00 | 0.00 | 0.00 | 99 | 1015.8 |
| 20260510074314 | 3 | 111 | 0.0 | 0.0 | 0.00 | 0.00 | 0.00 | 99 | 1015.8 |
| 20260510073809 | 3 | 104 | 0.0 | 0.0 | 0.00 | 0.00 | 0.00 | 99 | 1015.8 |
| 20260510073305 | 3 | 105 | 0.0 | 1.6 | 0.00 | 0.00 | 0.00 | 99 | 1015.9 |
| 20260510072801 | 3 | 94 | 0.0 | 0.0 | 0.00 | 0.00 | 0.00 | 99 | 1015.9 |
| 20260510072258 | 3 | 97 | 0.0 | 0.0 | 0.00 | 0.00 | 0.00 | 99 | 1015.8 |
| 20260510071754 | 3 | 87 | 1.6 | 1.6 | 0.00 | 0.00 | 0.00 | 99 | 1015.7 |
| 20260510071251 | 3 | 315 | 0.0 | 0.0 | 0.00 | 0.00 | 0.00 | 99 | 1015.5 |
| 20260510070750 | 3 | 350 | 0.0 | 1.6 | 0.00 | 0.00 | 0.00 | 99 | 1015.6 |
| 20260510070247 | 3 | 126 | 3.2 | 3.2 | 0.00 | 0.00 | 0.00 | 99 | 1015.5 |
| 20260510065746 | 3 | 118 | 0.0 | 0.0 | 0.00 | 0.00 | 0.00 | 99 | 1015.6 |
| 20260510065243 | 3 | 118 | 1.6 | 1.6 | 0.00 | 0.00 | 0.00 | 99 | 1015.5 |
| 20260510064740 | 3 | 130 | 1.6 | 1.6 | 0.00 | 0.00 | 0.00 | 99 | 1015.3 |
| 20260510064238 | 3 | 104 | 0.0 | 3.2 | 0.00 | 0.00 | 0.00 | 99 | 1015.3 |
| 20260510063733 | 4 | 84 | 0.0 | 1.6 | 0.00 | 0.00 | 0.00 | 99 | 1015.5 |
| 20260510063230 | 4 | 115 | 0.0 | 1.6 | 0.00 | 0.00 | 0.00 | 99 | 1015.5 |
| 20260510062727 | 3 | 100 | 0.0 | 1.6 | 0.00 | 0.00 | 0.00 | 99 | 1015.1 |
| 20260510062223 | 3 | 152 | 0.0 | 0.0 | 0.00 | 0.00 | 0.00 | 99 | 1015.3 |
| 20260510061718 | 3 | 182 | 0.0 | 1.6 | 0.00 | 0.00 | 0.00 | 99 | 1015.6 |
| 20260510061216 | 4 | 300 | 1.6 | 1.6 | 0.00 | 0.00 | 0.00 | 99 | 1015.2 |
| 20260510060712 | 4 | 104 | 0.0 | 0.0 | 0.00 | 0.00 | 0.00 | 99 | 1015.6 |
| 20260510060208 | 4 | 105 | 1.6 | 1.6 | 0.00 | 0.00 | 0.00 | 99 | 1015.5 |
| 20260510055705 | 4 | 116 | 0.0 | 1.6 | 0.00 | 0.00 | 0.00 | 99 | 1015.5 |
| 20260510055203 | 4 | 93 | 0.0 | 0.0 | 0.00 | 0.00 | 0.00 | 99 | 1015.3 |
| 20260510054658 | 4 | 137 | 0.0 | 0.0 | 0.00 | 0.00 | 0.00 | 99 | 1015.2 |
| 20260510054154 | 4 | 173 | 0.0 | 0.0 | 0.00 | 0.00 | 0.00 | 99 | 1015.3 |
| 20260510053654 | 3 | 288 | 0.0 | 0.0 | 0.00 | 0.00 | 0.00 | 98 | 1015.2 |
| 20260510053151 | 4 | 288 | 0.0 | 1.6 | 0.00 | 0.00 | 0.00 | 98 | 1015.3 |
| 20260510052646 | 4 | 280 | 0.0 | 0.0 | 0.00 | 0.00 | 0.00 | 98 | 1015.3 |
| 20260510052142 | 5 | 226 | 0.0 | 0.0 | 0.00 | 0.00 | 0.00 | 98 | 1015.1 |
| 20260510051638 | 5 | 295 | 0.0 | 3.2 | 0.00 | 0.00 | 0.00 | 98 | 1015.3 |
| 20260510051135 | 5 | 124 | 0.0 | 0.0 | 0.00 | 0.00 | 0.00 | 98 | 1015.5 |
| 20260510050632 | 5 | 122 | 0.0 | 0.0 | 0.00 | 0.00 | 0.00 | 98 | 1015.6 |
| 20260510050130 | 5 | 168 | 0.0 | 0.0 | 0.00 | 0.00 | 0.00 | 99 | 1015.5 |
| 20260510045626 | 5 | 24 | 0.0 | 0.0 | 0.00 | 0.00 | 0.00 | 99 | 1015.6 |
| 20260510045123 | 5 | 335 | 0.0 | 0.0 | 0.00 | 0.00 | 0.00 | 98 | 1015.5 |
| 20260510044619 | 5 | 335 | 0.0 | 0.0 | 0.00 | 0.00 | 0.00 | 98 | 1015.6 |
| 20260510044117 | 5 | 325 | 0.0 | 0.0 | 0.00 | 0.00 | 0.00 | 98 | 1015.7 |
| 20260510043612 | 5 | 320 | 0.0 | 1.6 | 0.00 | 0.00 | 0.00 | 98 | 1015.5 |
| 20260510043108 | 5 | 115 | 0.0 | 1.6 | 0.00 | 0.00 | 0.00 | 98 | 1015.6 |
| 20260510042607 | 6 | 29 | 0.0 | 0.0 | 0.00 | 0.00 | 0.00 | 98 | 1015.8 |
| 20260510042102 | 6 | 25 | 0.0 | 0.0 | 0.00 | 0.00 | 0.00 | 98 | 1015.8 |
| 20260510041559 | 5 | 86 | 0.0 | 0.0 | 0.00 | 0.00 | 0.00 | 97 | 1015.8 |
| 20260510041057 | 5 | 81 | 0.0 | 0.0 | 0.00 | 0.00 | 0.00 | 97 | 1015.6 |
| 20260510040554 | 6 | 124 | 0.0 | 1.6 | 0.00 | 0.00 | 0.00 | 97 | 1015.9 |
| 20260510040049 | 6 | 77 | 0.0 | 0.0 | 0.00 | 0.00 | 0.00 | 97 | 1015.9 |
| 20260510035546 | 6 | 77 | 0.0 | 0.0 | 0.00 | 0.00 | 0.00 | 97 | 1015.8 |
| 20260510035045 | 6 | 99 | 0.0 | 0.0 | 0.00 | 0.00 | 0.00 | 96 | 1015.7 |
| 20260510034544 | 6 | 100 | 0.0 | 0.0 | 0.00 | 0.00 | 0.00 | 96 | 1015.7 |
| 20260510034041 | 6 | 100 | 0.0 | 0.0 | 0.00 | 0.00 | 0.00 | 95 | 1015.7 |
| 20260510033536 | 6 | 100 | 0.0 | 0.0 | 0.00 | 0.00 | 0.00 | 95 | 1015.5 |
| 20260510033035 | 6 | 100 | 0.0 | 0.0 | 0.00 | 0.00 | 0.00 | 95 | 1015.7 |
| 20260510032531 | 7 | 100 | 0.0 | 0.0 | 0.00 | 0.00 | 0.00 | 95 | 1015.6 |
| 20260510032026 | 7 | 100 | 0.0 | 0.0 | 0.00 | 0.00 | 0.00 | 96 | 1015.7 |
| 20260510031521 | 6 | 100 | 0.0 | 0.0 | 0.00 | 0.00 | 0.00 | 96 | 1015.5 |
| 20260510031018 | 6 | 101 | 0.0 | 0.0 | 0.00 | 0.00 | 0.00 | 95 | 1015.5 |
| 20260510030513 | 7 | 123 | 0.0 | 0.0 | 0.00 | 0.00 | 0.00 | 95 | 1015.3 |
| 20260510030011 | 6 | 123 | 0.0 | 0.0 | 0.00 | 0.00 | 0.00 | 95 | 1015.5 |
| 20260510025508 | 7 | 123 | 0.0 | 0.0 | 0.00 | 0.00 | 0.00 | 93 | 1015.3 |
| 20260510025006 | 7 | 123 | 0.0 | 0.0 | 0.00 | 0.00 | 0.00 | 92 | 1015.1 |
| 20260510024502 | 7 | 123 | 0.0 | 0.0 | 0.00 | 0.00 | 0.00 | 93 | 1015.5 |
| 20260510023958 | 7 | 123 | 0.0 | 0.0 | 0.00 | 0.00 | 0.00 | 93 | 1015.2 |
| 20260510023454 | 7 | 123 | 0.0 | 0.0 | 0.00 | 0.00 | 0.00 | 92 | 1015.0 |
| 20260510022951 | 7 | 123 | 0.0 | 0.0 | 0.00 | 0.00 | 0.00 | 93 | 1015.3 |
| 20260510022450 | 7 | 123 | 0.0 | 0.0 | 0.00 | 0.00 | 0.00 | 92 | 1014.9 |
| 20260510021949 | 7 | 123 | 0.0 | 0.0 | 0.00 | 0.00 | 0.00 | 91 | 1015.1 |
| 20260510021448 | 7 | 123 | 0.0 | 0.0 | 0.00 | 0.00 | 0.00 | 90 | 1014.8 |
| 20260510020944 | 8 | 123 | 0.0 | 0.0 | 0.00 | 0.00 | 0.00 | 90 | 1014.8 |
| 20260510020438 | 8 | 123 | 0.0 | 0.0 | 0.00 | 0.00 | 0.00 | 88 | 1014.5 |
| 20260510015934 | 8 | 123 | 0.0 | 0.0 | 0.00 | 0.00 | 0.00 | 88 | 1014.6 |
| 20260510015430 | 8 | 123 | 0.0 | 0.0 | 0.00 | 0.00 | 0.00 | 87 | 1014.4 |
| 20260510014925 | 8 | 146 | 0.0 | 0.0 | 0.00 | 0.00 | 0.00 | 89 | 1014.5 |
| 20260510014423 | 8 | 151 | 0.0 | 0.0 | 0.00 | 0.00 | 0.00 | 88 | 1014.3 |
| 20260510013919 | 9 | 189 | 0.0 | 0.0 | 0.00 | 0.00 | 0.00 | 87 | 1014.2 |
| 20260510013414 | 9 | 190 | 0.0 | 0.0 | 0.00 | 0.00 | 0.00 | 87 | 1014.1 |
| 20260510012910 | 9 | 191 | 0.0 | 0.0 | 0.00 | 0.00 | 0.00 | 85 | 1014.1 |
| 20260510012405 | 10 | 212 | 0.0 | 0.0 | 0.00 | 0.00 | 0.00 | 84 | 1014.1 |
| 20260510011900 | 10 | 279 | 0.0 | 0.0 | 0.00 | 0.00 | 0.00 | 83 | 1013.9 |
| 20260510011355 | 10 | 281 | 0.0 | 0.0 | 0.00 | 0.00 | 0.00 | 81 | 1014.1 |
| 20260510010852 | 10 | 295 | 1.6 | 1.6 | 0.00 | 0.00 | 0.00 | 81 | 1014.0 |
| 20260510010349 | 11 | 152 | 0.0 | 0.0 | 0.00 | 0.00 | 0.00 | 80 | 1013.6 |
| 20260510005846 | 11 | 152 | 0.0 | 1.6 | 0.00 | 0.00 | 0.00 | 79 | 1013.5 |
| 20260510005342 | 11 | 152 | 0.0 | 0.0 | 0.00 | 0.00 | 0.00 | 77 | 1013.5 |
| 20260510004840 | 11 | 211 | 0.0 | 0.0 | 0.00 | 0.00 | 0.00 | 79 | 1013.4 |
| 20260510004337 | 11 | 255 | 0.0 | 0.0 | 0.00 | 0.00 | 0.00 | 77 | 1013.4 |
| 20260510003835 | 12 | 311 | 0.0 | 0.0 | 0.00 | 0.00 | 0.00 | 74 | 1013.3 |
| 20260510003332 | 13 | 345 | 0.0 | 0.0 | 0.00 | 0.00 | 0.00 | 73 | 1013.2 |
| 20260510002830 | 13 | 345 | 0.0 | 0.0 | 0.00 | 0.00 | 0.00 | 68 | 1013.2 |
| 20260510002327 | 14 | 301 | 0.0 | 1.6 | 0.00 | 0.00 | 0.00 | 65 | 1013.3 |
| 20260510001824 | 14 | 266 | 0.0 | 0.0 | 0.00 | 0.00 | 0.00 | 63 | 1013.1 |
| 20260510001322 | 15 | 212 | 0.0 | 0.0 | 0.00 | 0.00 | 0.00 | 61 | 1012.9 |
| 20260510000818 | 15 | 213 | 0.0 | 0.0 | 0.00 | 0.00 | 0.00 | 60 | 1012.9 |
| 20260510000318 | 16 | 227 | 0.0 | 0.0 | 0.00 | 0.00 | 0.00 | 58 | 1013.1 |
| 20260509235813 | 17 | 142 | 0.0 | 1.6 | 0.00 | 0.00 | 0.00 | 56 | 1012.8 |
| 20260509235309 | 17 | 238 | 1.6 | 3.2 | 0.00 | 0.00 | 0.00 | 53 | 1012.8 |
| 20260509234805 | 17 | 193 | 0.0 | 4.8 | 0.00 | 0.00 | 0.00 | 53 | 1012.7 |
| 20260509234302 | 17 | 280 | 1.6 | 1.6 | 0.00 | 0.00 | 0.00 | 52 | 1012.6 |
| 20260509233800 | 17 | 95 | 0.0 | 0.0 | 0.00 | 0.00 | 0.00 | 52 | 1012.6 |
| 20260509233257 | 18 | 243 | 0.0 | 1.6 | 0.00 | 0.00 | 0.00 | 52 | 1012.5 |
| 20260509232753 | 18 | 268 | 1.6 | 3.2 | 0.00 | 0.00 | 0.00 | 50 | 1012.4 |
| 20260509232251 | 17 | 118 | 0.0 | 1.6 | 0.00 | 0.00 | 0.00 | 54 | 1012.4 |
| 20260509231747 | 16 | 298 | 3.2 | 3.2 | 0.00 | 0.00 | 0.00 | 54 | 1012.6 |
| 20260509231244 | 17 | 302 | 0.0 | 3.2 | 0.00 | 0.00 | 0.00 | 52 | 1012.7 |
| 20260509230741 | 18 | 287 | 3.2 | 9.7 | 0.00 | 0.00 | 0.00 | 51 | 1012.7 |
| 20260509230238 | 18 | 298 | 1.6 | 3.2 | 0.00 | 0.00 | 0.00 | 48 | 1012.6 |
| 20260509225733 | 17 | 299 | 6.4 | 11.3 | 0.00 | 0.00 | 0.00 | 50 | 1012.8 |
| 20260509225230 | 17 | 225 | 4.8 | 9.7 | 0.00 | 0.00 | 0.00 | 49 | 1012.9 |
| 20260509224725 | 17 | 274 | 8.0 | 14.5 | 0.00 | 0.00 | 0.00 | 50 | 1012.9 |
| 20260509224223 | 19 | 321 | 8.0 | 12.9 | 0.00 | 0.00 | 0.00 | 48 | 1012.9 |
| 20260509223719 | 19 | 281 | 3.2 | 11.3 | 0.00 | 0.00 | 0.00 | 50 | 1012.8 |
| 20260509223217 | 18 | 304 | 1.6 | 4.8 | 0.00 | 0.00 | 0.00 | 50 | 1012.9 |
| 20260509222713 | 18 | 307 | 11.3 | 16.1 | 0.00 | 0.00 | 0.00 | 48 | 1012.8 |
| 20260509222209 | 18 | 298 | 1.6 | 9.7 | 0.00 | 0.00 | 0.00 | 48 | 1012.9 |
| 20260509221704 | 18 | 138 | 3.2 | 11.3 | 0.00 | 0.00 | 0.00 | 48 | 1012.8 |
| 20260509221201 | 18 | 283 | 3.2 | 12.9 | 0.00 | 0.00 | 0.00 | 48 | 1012.8 |
| 20260509220657 | 18 | 178 | 0.0 | 6.4 | 0.00 | 0.00 | 0.00 | 49 | 1012.7 |
| 20260509220154 | 18 | 276 | 11.3 | 16.1 | 0.00 | 0.00 | 0.00 | 46 | 1012.8 |
| 20260509215649 | 18 | 292 | 9.7 | 14.5 | 0.00 | 0.00 | 0.00 | 46 | 1012.8 |
| 20260509215146 | 18 | 104 | 1.6 | 3.2 | 0.00 | 0.00 | 0.00 | 47 | 1012.7 |
| 20260509214643 | 18 | 157 | 1.6 | 3.2 | 0.00 | 0.00 | 0.00 | 47 | 1012.7 |
| 20260509214140 | 18 | 292 | 4.8 | 20.9 | 0.00 | 0.00 | 0.00 | 47 | 1012.7 |
| 20260509213637 | 18 | 288 | 12.9 | 14.5 | 0.00 | 0.00 | 0.00 | 46 | 1012.5 |
| 20260509213132 | 18 | 305 | 4.8 | 14.5 | 0.00 | 0.00 | 0.00 | 46 | 1012.5 |
| 20260509212630 | 18 | 296 | 4.8 | 16.1 | 0.00 | 0.00 | 0.00 | 45 | 1012.5 |
| 20260509212127 | 20 | 258 | 4.8 | 11.3 | 0.00 | 0.00 | 0.00 | 44 | 1012.5 |
| 20260509211623 | 21 | 345 | 4.8 | 6.4 | 0.00 | 0.00 | 0.00 | 40 | 1012.2 |
| 20260509211119 | 18 | 305 | 1.6 | 6.4 | 0.00 | 0.00 | 0.00 | 46 | 1012.1 |
| 20260509210617 | 18 | 82 | 1.6 | 4.8 | 0.00 | 0.00 | 0.00 | 44 | 1012.2 |
| 20260509210114 | 18 | 239 | 3.2 | 4.8 | 0.00 | 0.00 | 0.00 | 43 | 1012.1 |
| 20260509205614 | 18 | 298 | 1.6 | 6.4 | 0.00 | 0.00 | 0.00 | 44 | 1011.9 |
| 20260509205109 | 19 | 341 | 3.2 | 4.8 | 0.00 | 0.00 | 0.00 | 44 | 1011.9 |
| 20260509204605 | 20 | 287 | 6.4 | 11.3 | 0.00 | 0.00 | 0.00 | 43 | 1011.9 |
| 20260509204102 | 20 | 338 | 3.2 | 4.8 | 0.00 | 0.00 | 0.00 | 42 | 1011.8 |
| 20260509203558 | 21 | 309 | 4.8 | 9.7 | 0.00 | 0.00 | 0.00 | 42 | 1011.8 |
| 20260509203056 | 21 | 118 | 4.8 | 14.5 | 0.00 | 0.00 | 0.00 | 43 | 1011.6 |
| 20260509202550 | 19 | 294 | 1.6 | 4.8 | 0.00 | 0.00 | 0.00 | 46 | 1011.6 |
| 20260509202046 | 20 | 192 | 3.2 | 6.4 | 0.00 | 0.00 | 0.00 | 45 | 1011.5 |
| 20260509201541 | 20 | 182 | 1.6 | 4.8 | 0.00 | 0.00 | 0.00 | 46 | 1011.7 |
| 20260509201039 | 20 | 185 | 3.2 | 6.4 | 0.00 | 0.00 | 0.00 | 50 | 1011.6 |
| 20260509200538 | 20 | 2 | 1.6 | 6.4 | 0.00 | 0.00 | 0.00 | 47 | 1011.7 |
| 20260509200036 | 21 | 266 | 6.4 | 11.3 | 0.00 | 0.00 | 0.00 | 48 | 1011.6 |
| 20260509195532 | 20 | 274 | 3.2 | 6.4 | 0.00 | 0.00 | 0.00 | 47 | 1011.6 |
| 20260509195031 | 20 | 200 | 8.0 | 11.3 | 0.00 | 0.00 | 0.00 | 49 | 1011.6 |
| 20260509194526 | 20 | 318 | 3.2 | 9.7 | 0.00 | 0.00 | 0.00 | 49 | 1011.6 |
| 20260509194024 | 20 | 328 | 3.2 | 11.3 | 0.00 | 0.00 | 0.00 | 51 | 1011.6 |
| 20260509193524 | 20 | 199 | 1.6 | 4.8 | 0.00 | 0.00 | 0.00 | 52 | 1011.7 |
| 20260509193022 | 20 | 94 | 1.6 | 6.4 | 0.00 | 0.00 | 0.00 | 50 | 1011.6 |
| 20260509192517 | 20 | 259 | 1.6 | 6.4 | 0.00 | 0.00 | 0.00 | 49 | 1011.7 |
| 20260509192013 | 19 | 288 | 3.2 | 4.8 | 0.00 | 0.00 | 0.00 | 52 | 1011.8 |
| 20260509191507 | 20 | 61 | 1.6 | 9.7 | 0.00 | 0.00 | 0.00 | 50 | 1011.7 |
| 20260509191003 | 20 | 44 | 3.2 | 6.4 | 0.00 | 0.00 | 0.00 | 49 | 1011.7 |
| 20260509190500 | 20 | 230 | 4.8 | 6.4 | 0.00 | 0.00 | 0.00 | 45 | 1011.8 |
| 20260509185958 | 19 | 297 | 4.8 | 4.8 | 0.00 | 0.00 | 0.00 | 49 | 1011.9 |
| 20260509185455 | 19 | 292 | 4.8 | 11.3 | 0.00 | 0.00 | 0.00 | 51 | 1012.0 |
| 20260509184952 | 19 | 328 | 1.6 | 3.2 | 0.00 | 0.00 | 0.00 | 52 | 1011.8 |
| 20260509184451 | 19 | 315 | 1.6 | 4.8 | 0.00 | 0.00 | 0.00 | 50 | 1011.9 |
| 20260509183947 | 19 | 306 | 3.2 | 9.7 | 0.00 | 0.00 | 0.00 | 48 | 1011.9 |
| 20260509183447 | 19 | 150 | 0.0 | 9.7 | 0.00 | 0.00 | 0.00 | 49 | 1012.0 |
| 20260509182943 | 20 | 336 | 6.4 | 9.7 | 0.00 | 0.00 | 0.00 | 47 | 1012.0 |
| 20260509182439 | 20 | 315 | 3.2 | 9.7 | 0.00 | 0.00 | 0.00 | 49 | 1012.0 |
| 20260509181937 | 19 | 319 | 1.6 | 9.7 | 0.00 | 0.00 | 0.00 | 51 | 1011.9 |
| 20260509181435 | 21 | 296 | 4.8 | 11.3 | 0.00 | 0.00 | 0.00 | 50 | 1012.0 |
| 20260509180932 | 19 | 1 | 0.0 | 1.6 | 0.00 | 0.00 | 0.00 | 53 | 1012.1 |
| 20260509180427 | 19 | 328 | 1.6 | 4.8 | 0.00 | 0.00 | 0.00 | 49 | 1012.0 |
| 20260509175924 | 20 | 321 | 1.6 | 6.4 | 0.00 | 0.00 | 0.00 | 49 | 1012.2 |
| 20260509175421 | 19 | 300 | 1.6 | 3.2 | 0.00 | 0.00 | 0.00 | 57 | 1012.2 |
| 20260509174917 | 19 | 138 | 0.0 | 9.7 | 0.00 | 0.00 | 0.00 | 53 | 1012.1 |
| 20260509174413 | 18 | 303 | 4.8 | 6.4 | 0.00 | 0.00 | 0.00 | 50 | 1012.2 |
| 20260509173909 | 19 | 233 | 1.6 | 11.3 | 0.00 | 0.00 | 0.00 | 55 | 1012.2 |
| 20260509173409 | 20 | 103 | 3.2 | 9.7 | 0.00 | 0.00 | 0.00 | 49 | 1012.4 |
| 20260509172906 | 20 | 286 | 3.2 | 6.4 | 0.00 | 0.00 | 0.00 | 50 | 1012.6 |
| 20260509172403 | 19 | 183 | 8.0 | 11.3 | 0.00 | 0.00 | 0.00 | 56 | 1012.4 |
| 20260509171859 | 17 | 65 | 9.7 | 11.3 | 0.00 | 0.00 | 0.00 | 51 | 1012.5 |
| 20260509171355 | 17 | 102 | 0.0 | 3.2 | 0.00 | 0.00 | 0.00 | 57 | 1012.7 |
| 20260509170851 | 17 | 298 | 1.6 | 11.3 | 0.00 | 0.00 | 0.00 | 57 | 1012.9 |
| 20260509170347 | 17 | 314 | 1.6 | 6.4 | 0.00 | 0.00 | 0.00 | 57 | 1012.9 |
| 20260509165847 | 17 | 212 | 0.0 | 4.8 | 0.00 | 0.00 | 0.00 | 58 | 1012.8 |
| 20260509165336 | 17 | 110 | 0.0 | 3.2 | 0.00 | 0.00 | 0.00 | 60 | 1012.9 |
| 20260509164833 | 17 | 240 | 1.6 | 4.8 | 0.00 | 0.00 | 0.00 | 64 | 1012.9 |
| 20260509164329 | 16 | 315 | 6.4 | 11.3 | 0.00 | 0.00 | 0.00 | 59 | 1013.1 |
| 20260509163825 | 17 | 28 | 0.0 | 3.2 | 0.00 | 0.00 | 0.00 | 63 | 1013.0 |
| 20260509163322 | 17 | 299 | 3.2 | 4.8 | 0.00 | 0.00 | 0.00 | 63 | 1012.8 |
| 20260509162822 | 17 | 341 | 3.2 | 4.8 | 0.00 | 0.00 | 0.00 | 60 | 1012.9 |
| 20260509162320 | 17 | 237 | 1.6 | 6.4 | 0.00 | 0.00 | 0.00 | 62 | 1012.8 |
| 20260509161816 | 17 | 21 | 1.6 | 3.2 | 0.00 | 0.00 | 0.00 | 59 | 1012.7 |
| 20260509161313 | 17 | 116 | 0.0 | 4.8 | 0.00 | 0.00 | 0.00 | 62 | 1012.6 |
| 20260509160808 | 16 | 119 | 0.0 | 3.2 | 0.00 | 0.00 | 0.00 | 65 | 1012.5 |
| 20260509160304 | 16 | 319 | 0.0 | 4.8 | 0.00 | 0.00 | 0.00 | 61 | 1012.6 |
| 20260509155800 | 16 | 351 | 0.0 | 1.6 | 0.00 | 0.00 | 0.00 | 63 | 1012.7 |
| 20260509155257 | 16 | 197 | 0.0 | 4.8 | 0.00 | 0.00 | 0.00 | 64 | 1012.5 |
| 20260509154753 | 16 | 120 | 0.0 | 3.2 | 0.00 | 0.00 | 0.00 | 64 | 1012.9 |
| 20260509154250 | 16 | 299 | 3.2 | 4.8 | 0.00 | 0.00 | 0.00 | 63 | 1012.8 |
| 20260509153747 | 16 | 160 | 4.8 | 9.7 | 0.00 | 0.00 | 0.00 | 62 | 1012.6 |
| 20260509153243 | 17 | 279 | 6.4 | 12.9 | 0.00 | 0.00 | 0.00 | 59 | 1012.6 |
| 20260509152739 | 17 | 192 | 1.6 | 4.8 | 0.00 | 0.00 | 0.00 | 61 | 1012.6 |
| 20260509152236 | 17 | 308 | 3.2 | 9.7 | 0.00 | 0.00 | 0.00 | 60 | 1012.7 |
| 20260509151733 | 18 | 102 | 0.0 | 6.4 | 0.00 | 0.00 | 0.00 | 60 | 1012.6 |
| 20260509151229 | 18 | 326 | 4.8 | 6.4 | 0.00 | 0.00 | 0.00 | 58 | 1012.7 |
| 20260509150728 | 18 | 326 | 8.0 | 14.5 | 0.00 | 0.00 | 0.00 | 55 | 1012.8 |
| 20260509150226 | 17 | 343 | 1.6 | 6.4 | 0.00 | 0.00 | 0.00 | 58 | 1012.8 |
| 20260509145722 | 17 | 107 | 0.0 | 3.2 | 0.00 | 0.00 | 0.00 | 63 | 1012.9 |
| 20260509145217 | 16 | 285 | 3.2 | 9.7 | 0.00 | 0.00 | 0.00 | 64 | 1012.8 |
| 20260509144714 | 16 | 313 | 6.4 | 11.3 | 0.00 | 0.00 | 0.00 | 65 | 1013.0 |
| 20260509144211 | 16 | 162 | 3.2 | 4.8 | 0.00 | 0.00 | 0.00 | 64 | 1012.9 |
| 20260509143708 | 16 | 134 | 1.6 | 4.8 | 0.00 | 0.00 | 0.00 | 72 | 1012.9 |
| 20260509143205 | 16 | 303 | 3.2 | 12.9 | 0.00 | 0.00 | 0.00 | 65 | 1012.7 |
| 20260509142700 | 16 | 339 | 1.6 | 11.3 | 0.00 | 0.00 | 0.00 | 67 | 1012.8 |
| 20260509142157 | 15 | 97 | 3.2 | 4.8 | 0.00 | 0.00 | 0.00 | 62 | 1013.0 |
| 20260509141653 | 15 | 76 | 1.6 | 9.7 | 0.00 | 0.00 | 0.00 | 66 | 1013.1 |
| 20260509141150 | 15 | 304 | 3.2 | 4.8 | 0.00 | 0.00 | 0.00 | 68 | 1013.1 |
| 20260509140647 | 15 | 296 | 3.2 | 4.8 | 0.00 | 0.00 | 0.00 | 71 | 1013.1 |
| 20260509140145 | 13 | 312 | 4.8 | 4.8 | 0.00 | 0.00 | 0.00 | 70 | 1012.9 |
| 20260509135641 | 15 | 297 | 3.2 | 3.2 | 0.00 | 0.00 | 0.00 | 68 | 1013.0 |
| 20260509135140 | 15 | 248 | 0.0 | 3.2 | 0.00 | 0.00 | 0.00 | 73 | 1013.1 |
| 20260509134636 | 13 | 282 | 1.6 | 4.8 | 0.00 | 0.00 | 0.00 | 76 | 1013.0 |
| 20260509134134 | 13 | 314 | 0.0 | 4.8 | 0.00 | 0.00 | 0.00 | 73 | 1012.5 |
| 20260509133631 | 11 | 83 | 0.0 | 1.6 | 0.00 | 0.00 | 0.00 | 73 | 1012.9 |
| 20260509133128 | 11 | 288 | 1.6 | 3.2 | 0.00 | 0.00 | 0.00 | 75 | 1013.1 |
| 20260509132626 | 11 | 317 | 4.8 | 4.8 | 0.00 | 0.00 | 0.00 | 73 | 1013.2 |
| 20260509132124 | 11 | 329 | 1.6 | 4.8 | 0.00 | 0.00 | 0.00 | 72 | 1013.4 |
| 20260509131620 | 11 | 21 | 0.0 | 0.0 | 0.00 | 0.00 | 0.00 | 75 | 1013.4 |
| 20260509131117 | 10 | 52 | 0.0 | 3.2 | 0.00 | 0.00 | 0.00 | 76 | 1013.5 |
| 20260509130613 | 10 | 328 | 0.0 | 0.0 | 0.00 | 0.00 | 0.00 | 77 | 1013.9 |
| 20260509130109 | 10 | 57 | 0.0 | 1.6 | 0.00 | 0.00 | 0.00 | 78 | 1013.9 |
| 20260509125606 | 10 | 20 | 0.0 | 0.0 | 0.00 | 0.00 | 0.00 | 79 | 1013.7 |
| 20260509125102 | 8 | 75 | 0.0 | 0.0 | 0.00 | 0.00 | 0.00 | 80 | 1014.1 |
| 20260509124559 | 8 | 101 | 0.0 | 1.6 | 0.00 | 0.00 | 0.00 | 86 | 1013.9 |
| 20260509124056 | 7 | 102 | 0.0 | 1.6 | 0.00 | 0.00 | 0.00 | 84 | 1013.7 |
| 20260509123554 | 7 | 107 | 1.6 | 3.2 | 0.00 | 0.00 | 0.00 | 87 | 1014.1 |
| 20260509123051 | 7 | 104 | 1.6 | 1.6 | 0.00 | 0.00 | 0.00 | 89 | 1014.0 |
| 20260509122547 | 7 | 99 | 0.0 | 0.0 | 0.00 | 0.00 | 0.00 | 91 | 1014.1 |
| 20260509122044 | 6 | 111 | 0.0 | 0.0 | 0.00 | 0.00 | 0.00 | 91 | 1014.3 |
| 20260509121540 | 6 | 69 | 0.0 | 1.6 | 0.00 | 0.00 | 0.00 | 92 | 1014.1 |
| 20260509121038 | 6 | 97 | 0.0 | 0.0 | 0.00 | 0.00 | 0.00 | 92 | 1014.2 |
| 20260509120536 | 6 | 111 | 0.0 | 0.0 | 0.00 | 0.00 | 0.00 | 93 | 1014.3 |
| 20260509120034 | 6 | 118 | 0.0 | 0.0 | 0.00 | 0.00 | 0.00 | 94 | 1014.1 |
| 20260509115531 | 6 | 122 | 0.0 | 0.0 | 0.00 | 0.00 | 0.00 | 94 | 1014.4 |
| 20260509115029 | 5 | 135 | 0.0 | 0.0 | 0.00 | 0.00 | 0.00 | 95 | 1014.2 |
| 20260509114527 | 5 | 183 | 0.0 | 0.0 | 0.00 | 0.00 | 0.00 | 95 | 1014.1 |
| 20260509114025 | 5 | 191 | 0.0 | 0.0 | 0.00 | 0.00 | 0.00 | 96 | 1014.1 |
| 20260509113523 | 5 | 173 | 0.0 | 0.0 | 0.00 | 0.00 | 0.00 | 97 | 1014.1 |
| 20260509113021 | 4 | 208 | 0.0 | 0.0 | 0.00 | 0.00 | 0.00 | 98 | 1014.3 |
| 20260509112517 | 4 | 228 | 0.0 | 0.0 | 0.00 | 0.00 | 0.00 | 99 | 1014.0 |
| 20260509112014 | 4 | 172 | 0.0 | 0.0 | 0.00 | 0.00 | 0.00 | 99 | 1013.9 |
| 20260509111511 | 3 | 171 | 0.0 | 0.0 | 0.00 | 0.00 | 0.00 | 99 | 1013.9 |
| 20260509111008 | 3 | 179 | 0.0 | 0.0 | 0.00 | 0.00 | 0.00 | 99 | 1013.6 |
| 20260509110504 | 3 | 134 | 0.0 | 0.0 | 0.00 | 0.00 | 0.00 | 99 | 1014.0 |
| 20260509110002 | 3 | 134 | 0.0 | 0.0 | 0.00 | 0.00 | 0.00 | 99 | 1013.9 |
| 20260509105500 | 3 | 134 | 0.0 | 0.0 | 0.00 | 0.00 | 0.00 | 99 | 1013.9 |
| 20260509104957 | 3 | 134 | 0.0 | 0.0 | 0.00 | 0.00 | 0.00 | 99 | 1014.1 |
| 20260509104454 | 3 | 134 | 0.0 | 0.0 | 0.00 | 0.00 | 0.00 | 99 | 1013.9 |